Wind_Speed
4 4 3 3 3 3 2 3 3 4 5 5 6 7 7 8 7 7 7 7 7 7 8 8 8 8 8 8 9 9 9 8 7 7 8 8 8 8 8 8 8 7 7 8 8 8 8 8 9
5 5 4 4 4 4 4 4 5 6 6 7 7 7 8 8 7 7 6 6 7 7 8 9 9 8 8 8 9 9 9 9 8 9 9 9 9 8 9 9 8 9 9 9 9 9 9 9 9
6 6 5 5 5 4 4 5 6 6 7 7 8 8 8 8 8 8 7 7 7 8 9 9 9 9 9 9 9 9 9 9 9 9 9 9 9 9 9 9 10 10 10 11 10 10 10 11 11
7 7 6 6 5 5 5 6 6 6 6 6 6 7 8 8 9 8 8 8 8 9 10 10 9 9 9 9 9 10 10 10 10 9 9 10 10 10 10 10 11 11 11 12 11 12 12 12 12
9 8 7 7 6 5 6 6 6 5 5 6 7 7 8 8 8 8 8 8 9 9 9 10 9 9 9 9 10 10 11 11 10 10 11 11 11 11 11 11 12 12 13 13 13 14 13 13 13
10 9 8 7 7 6 6 5 5 6 5 6 7 7 8 8 8 8 8 8 9 9 9 8 8 9 9 10 10 10 10 10 11 10 11 11 11 12 12 12 13 14 14 15 15 15 15 15 15
10 9 8 8 7 7 7 6 6 6 6 7 8 8 8 8 8 9 9 9 9 9 8 8 9 9 10 9 10 10 10 11 11 12 12 12 13 13 13 14 15 15 16 16 16 17 16 16 16
10 10 9 8 7 7 7 6 6 7 7 8 9 9 9 9 9 9 10 10 10 9 9 9 9 10 10 9 10 10 11 11 12 13 13 13 13 14 14 14 16 17 17 18 18 18 18 18 18
11 11 10 9 9 8 7 7 7 8 8 9 9 9 10 9 10 10 10 10 10 9 10 11 10 11 10 10 11 11 11 12 13 13 14 14 14 15 14 15 16 18 19 19 19 19 19 19 19
11 10 10 11 10 9 8 8 9 9 8 9 9 9 10 9 10 11 11 11 11 11 11 12 12 12 11 12 12 12 13 14 14 15 15 15 15 15 15 17 17 18 19 19 20 20 20 20 20
11 10 11 12 11 10 9 9 10 10 9 9 8 8 9 10 11 11 11 11 12 12 12 12 12 12 13 13 14 14 14 14 15 15 16 16 16 16 17 17 18 19 19 20 20 21 21 22 22
12 11 11 13 12 11 10 10 10 9 9 9 10 9 10 11 12 12 12 13 13 13 13 13 14 14 14 15 15 15 15 16 16 16 16 17 17 17 18 19 19 19 19 19 20 21 21 22 22
13 12 12 13 13 12 12 12 11 9 9 9 10 11 11 12 12 13 13 13 13 14 14 14 14 15 15 15 15 15 16 16 16 16 17 17 17 18 18 19 19 19 20 20 20 21 22 23 23
13 12 13 13 13 13 13 13 12 12 11 11 11 12 12 12 13 14 14 14 15 16 16 15 15 15 15 15 16 16 16 16 16 17 17 17 18 18 18 18 19 19 20 21 22 22 23 23 23
13 13 13 12 13 13 13 12 12 13 12 11 12 12 12 13 14 15 15 15 16 16 16 15 15 15 15 16 16 16 17 17 17 17 18 18 18 18 18 19 19 19 20 21 22 22 23 23 23
14 14 13 13 13 13 13 12 12 12 12 12 11 12 12 13 14 15 15 15 15 15 15 15 15 15 16 16 16 17 18 18 18 19 19 19 18 18 19 19 19 20 20 21 21 22 22 22 23
15 15 14 13 13 13 13 12 12 12 11 12 12 13 13 13 14 15 16 16 15 15 15 15 15 15 16 16 17 18 18 18 19 19 18 19 19 18 19 19 20 20 20 21 21 21 22 23 23
16 16 15 14 14 14 13 13 12 12 12 13 13 14 15 15 15 15 15 16 15 15 15 15 15 15 15 16 17 17 18 18 18 18 17 18 18 19 19 19 20 19 20 21 21 21 21 22 23
16 15 15 14 15 16 15 14 13 12 13 13 13 14 15 15 15 15 15 15 15 15 15 16 15 14 15 16 17 17 17 17 17 16 16 17 18 18 18 19 20 20 20 20 21 21 21 21 21
16 15 14 15 16 17 16 15 14 14 13 13 13 14 14 16 15 15 15 15 15 15 16 15 15 15 15 16 16 16 16 16 16 16 16 17 18 18 18 19 20 20 20 20 20 21 21 21 21
16 15 14 15 16 17 17 16 15 15 14 13 13 13 14 15 15 15 15 15 15 15 15 15 14 15 15 16 16 16 16 16 16 17 17 17 18 18 19 19 20 20 20 21 20 20 20 19 20
15 15 15 16 17 17 18 17 14 14 13 12 12 13 14 15 15 15 15 15 16 16 15 15 15 16 15 16 16 16 16 16 16 17 17 18 18 19 19 19 20 21 20 20 19 19 19 20 20
15 16 16 17 18 19 18 18 13 13 12 12 13 14 15 15 15 15 15 16 16 16 16 16 16 16 16 16 16 15 16 17 17 17 18 19 20 20 20 20 20 20 19 19 18 18 19 20 21
16 16 16 16 17 18 17 17 14 14 14 13 14 14 15 15 15 15 16 17 18 16 16 16 16 16 16 16 15 16 17 17 18 18 19 20 20 20 20 19 19 19 18 18 18 18 19 20 20
17 16 16 16 16 16 16 16 14 14 14 14 15 15 16 16 15 16 17 18 18 16 16 16 15 15 15 15 16 17 17 17 17 18 19 20 20 20 19 19 19 19 19 18 18 18 18 19 20
16 17 17 18 16 16 16 16 14 13 14 14 15 15 15 15 15 17 17 17 17 16 16 16 15 15 16 16 16 16 16 16 16 18 19 20 20 19 18 18 18 19 18 18 18 18 18 18 19
17 18 18 19 18 17 17 16 15 13 13 13 14 14 14 15 15 16 16 17 17 16 17 15 14 15 15 15 15 16 16 16 17 18 18 19 19 19 18 18 19 19 18 18 18 18 18 18 18
18 18 18 19 19 19 17 16 15 14 13 13 14 14 15 15 15 16 16 16 16 17 16 15 14 15 14 14 15 15 16 16 17 17 17 18 18 18 18 18 18 18 18 18 18 18 18 18 18
20 19 20 20 20 20 18 16 15 15 14 15 15 15 15 15 14 15 15 16 16 16 16 15 15 15 14 15 15 16 15 15 14 16 16 17 17 17 17 17 17 17 17 17 17 17 17 17 16
21 21 21 20 20 19 18 16 16 16 16 16 16 16 16 15 15 15 15 15 15 15 15 15 15 15 15 15 15 15 14 14 14 15 16 16 16 17 17 17 17 17 17 16 17 17 16 15 15
Wind_Direction
228 231 230 229 239 241 254 274 281 297 308 314 314 312 317 321 317 315 317 323 324 328 331 331 332 333 334 339 343 340 338 336 328 323 322 318 306 301 296 290 289 287 292 295 289 284 281 278 277
232 230 230 232 236 243 256 271 278 295 310 315 314 313 308 312 318 315 314 316 316 319 319 320 321 325 320 325 333 333 332 327 322 314 313 312 304 298 293 288 288 287 290 293 289 283 280 277 276
230 233 235 241 239 246 261 276 287 296 304 308 308 313 312 312 318 314 314 315 311 310 313 314 315 318 315 317 322 325 327 324 321 315 308 306 300 297 295 289 288 285 287 291 289 283 280 276 274
233 237 240 247 249 258 266 280 288 292 294 298 305 312 316 315 322 319 317 316 313 312 313 312 312 312 313 315 318 317 320 317 315 312 306 299 295 295 290 287 286 285 288 289 286 281 277 275 272
239 241 243 245 251 259 265 270 277 284 281 296 305 313 323 325 326 324 319 320 318 316 315 312 310 308 312 313 312 314 315 313 313 310 302 297 293 289 286 285 283 284 286 286 284 280 277 274 270
239 244 244 249 252 250 262 273 289 293 287 296 307 308 318 323 323 324 322 323 322 319 319 316 314 313 313 315 315 314 315 314 311 308 305 300 295 290 285 282 281 281 282 283 284 281 278 274 270
238 241 240 245 245 246 256 274 288 295 296 296 306 310 316 323 322 325 326 319 317 317 320 318 314 311 311 313 316 316 314 311 310 308 306 303 295 290 287 282 281 280 281 281 280 277 275 274 272
237 239 238 242 242 245 255 266 280 292 296 301 305 312 323 325 323 323 324 323 317 314 315 312 310 310 307 309 312 309 309 312 312 309 304 300 296 292 290 285 283 281 281 280 278 275 273 271 270
238 235 238 242 243 248 254 269 282 288 296 304 308 311 316 322 324 324 323 318 313 310 308 308 304 304 301 301 306 308 309 311 310 307 302 298 296 294 292 289 285 283 282 280 276 274 272 270 268
239 239 238 244 247 253 256 264 276 283 292 304 313 317 317 321 320 319 320 315 309 307 306 302 300 299 302 303 304 305 308 311 308 304 301 298 296 295 293 290 287 284 281 280 278 274 271 269 268
238 239 240 248 251 256 261 267 273 280 287 294 302 312 317 316 316 316 314 313 312 308 304 304 301 302 304 303 304 304 309 309 306 304 301 297 297 296 294 291 287 283 280 277 276 275 272 271 270
240 240 242 247 253 255 261 267 271 275 284 291 299 306 311 314 310 308 308 310 308 304 302 302 303 305 306 306 303 303 305 304 304 302 300 298 297 297 296 293 289 285 280 277 275 274 273 272 273
245 243 244 249 251 255 258 266 272 274 278 287 295 301 305 310 313 314 313 311 308 306 303 303 306 305 304 304 304 302 302 301 301 301 298 296 296 297 297 294 292 289 284 282 279 277 273 272 272
246 247 247 248 252 255 258 264 269 270 272 276 286 295 304 306 311 316 316 312 309 311 310 310 306 303 301 303 306 305 302 300 301 301 298 297 296 296 298 295 292 288 286 283 281 279 276 273 272
244 245 243 247 253 256 258 260 266 268 270 274 281 290 299 303 308 313 316 315 313 313 310 307 305 303 301 303 305 306 305 302 300 300 299 298 296 294 294 294 292 290 287 283 281 280 276 275 274
239 239 240 244 251 256 260 260 264 269 273 278 283 290 298 302 307 312 315 315 311 310 310 309 308 306 305 303 303 305 305 303 301 301 299 299 297 295 292 292 292 291 290 286 282 281 278 277 276
237 238 241 246 253 257 257 260 265 266 273 279 283 288 295 300 306 312 314 312 309 306 308 309 310 309 308 307 306 304 303 302 302 302 301 299 298 297 295 293 293 291 289 286 283 282 280 278 278
238 243 244 249 256 258 255 258 265 269 272 281 282 285 292 298 303 307 311 311 309 306 307 307 309 310 310 308 307 304 302 303 304 305 305 303 302 299 298 297 296 293 291 288 285 283 282 281 280
244 248 251 252 257 259 256 262 268 274 278 282 282 287 291 296 298 301 307 311 311 308 306 304 305 308 310 308 308 307 305 306 306 309 311 310 306 302 299 298 296 294 293 292 287 285 283 282 282
245 249 254 256 259 263 264 265 271 278 281 281 281 282 288 294 298 295 301 305 307 307 310 307 306 305 307 307 307 305 307 306 305 306 307 309 307 304 301 300 298 296 295 294 291 287 284 282 282
245 250 256 260 264 268 269 271 272 276 279 281 281 286 288 294 297 296 299 300 305 308 309 311 309 307 308 307 306 305 305 305 305 306 307 308 307 305 303 301 299 298 297 295 293 290 286 282 282
245 251 259 262 266 268 271 273 268 272 278 278 279 284 290 294 294 297 300 301 304 307 309 310 306 304 304 306 306 306 306 308 309 309 307 308 309 307 305 303 301 299 298 297 294 292 287 283 283
245 252 261 266 266 268 271 270 270 272 276 279 279 285 289 293 295 297 298 299 302 302 304 307 307 308 305 305 307 305 305 305 306 309 310 312 312 313 311 307 304 301 300 299 296 292 288 285 284
245 252 260 265 265 265 265 267 270 269 274 279 284 287 288 290 294 297 300 300 302 302 304 306 306 307 305 303 307 308 307 306 307 309 311 313 313 313 313 311 310 306 303 301 298 294 289 287 287
244 251 257 263 264 264 263 267 273 274 277 278 284 287 288 289 292 296 301 300 299 301 304 305 306 307 306 305 307 309 309 310 311 312 313 314 314 313 313 313 312 309 306 304 301 297 293 290 289
245 249 256 262 265 264 263 267 273 278 279 281 284 284 286 290 293 296 298 300 300 300 302 303 305 307 307 307 308 309 311 311 312 314 315 316 316 314 313 314 313 311 308 306 303 300 296 293 291
247 248 254 262 264 269 269 272 272 277 283 284 284 285 288 291 292 294 297 299 299 300 303 304 307 307 308 308 307 309 309 311 311 314 316 317 317 317 316 316 316 314 311 308 305 303 299 296 293
245 249 255 261 266 268 270 274 277 280 284 288 287 288 292 293 295 294 294 297 298 300 301 302 304 306 308 308 309 311 310 310 312 315 318 320 321 323 322 321 320 319 315 310 307 304 302 298 296
246 250 256 261 265 268 271 275 278 281 283 284 284 287 293 293 292 293 293 296 301 301 300 300 303 308 308 306 309 312 314 313 314 319 320 321 322 322 323 323 324 323 322 318 312 308 305 301 300
250 252 256 259 267 270 272 277 276 278 281 281 283 288 288 287 285 290 293 297 303 302 301 302 303 307 308 308 309 313 316 316 316 319 322 323 322 322 323 322 322 322 323 322 321 317 314 311 308
Height
5875 5876 5877 5878 5878 5878 5877 5877 5876 5876 5876 5876 5876 5876 5876 5876 5876 5878 5876 5874 5874 5874 5873 5872 5871 5870 5870 5869 5868 5868 5868 5867 5867 5867 5867 5867 5867 5867 5867 5868 5868 5868 5868 5869 5869 5870 5870 5871 5871
5875 5876 5877 5878 5877 5877 5877 5877 5876 5876 5876 5875 5875 5875 5875 5875 5874 5874 5873 5873 5873 5873 5872 5871 5870 5869 5869 5868 5867 5867 5867 5866 5866 5866 5866 5866 5866 5866 5866 5866 5866 5867 5867 5867 5868 5868 5869 5869 5869
5874 5875 5877 5877 5876 5876 5876 5876 5876 5876 5875 5875 5875 5874 5874 5874 5873 5873 5872 5872 5872 5871 5871 5870 5869 5868 5867 5867 5866 5866 5866 5865 5865 5865 5864 5864 5864 5864 5864 5864 5865 5865 5865 5865 5865 5866 5867 5867 5867
5874 5875 5876 5876 5875 5876 5875 5875 5875 5875 5874 5874 5874 5874 5873 5873 5872 5872 5871 5871 5871 5870 5870 5869 5868 5867 5866 5866 5865 5865 5864 5864 5863 5863 5863 5863 5862 5862 5862 5862 5862 5863 5863 5863 5863 5864 5864 5864 5865
5872 5873 5874 5874 5874 5874 5874 5874 5874 5873 5873 5873 5873 5873 5872 5872 5871 5871 5870 5869 5869 5869 5868 5867 5866 5865 5865 5864 5864 5863 5862 5862 5861 5861 5861 5860 5860 5860 5860 5860 5860 5860 5860 5861 5861 5861 5861 5862 5862
5871 5872 5873 5873 5873 5873 5873 5872 5872 5872 5872 5872 5872 5872 5872 5871 5870 5870 5869 5868 5868 5867 5867 5865 5864 5864 5863 5862 5862 5861 5860 5860 5859 5859 5858 5858 5858 5857 5857 5857 5857 5857 5857 5857 5858 5858 5858 5858 5859
5870 5871 5871 5872 5872 5872 5871 5871 5871 5871 5871 5871 5871 5871 5871 5870 5870 5868 5868 5867 5866 5866 5865 5864 5863 5862 5861 5861 5860 5860 5859 5858 5858 5857 5856 5855 5855 5855 5854 5854 5854 5854 5854 5854 5854 5854 5854 5855 5855
5868 5870 5869 5870 5870 5870 5870 5869 5869 5870 5870 5870 5870 5870 5869 5869 5868 5867 5866 5865 5864 5863 5863 5862 5861 5860 5860 5859 5858 5858 5857 5856 5855 5855 5854 5853 5852 5851 5851 5850 5850 5850 5850 5850 5850 5850 5850 5851 5851
5866 5868 5867 5868 5868 5869 5869 5868 5868 5868 5868 5868 5869 5869 5868 5868 5867 5866 5865 5864 5863 5862 5861 5860 5859 5858 5858 5857 5856 5855 5854 5854 5852 5852 5851 5850 5849 5848 5847 5847 5846 5846 5846 5846 5846 5846 5846 5847 5847
5864 5865 5866 5866 5867 5867 5867 5867 5867 5867 5867 5867 5868 5867 5867 5866 5865 5865 5863 5862 5861 5860 5859 5858 5857 5856 5856 5855 5854 5853 5852 5851 5850 5849 5847 5846 5845 5844 5844 5843 5842 5842 5842 5841 5841 5842 5842 5842 5842
5862 5863 5864 5864 5865 5865 5865 5865 5866 5866 5866 5866 5866 5866 5866 5865 5863 5863 5862 5860 5859 5858 5857 5856 5855 5854 5853 5852 5851 5849 5848 5848 5847 5845 5844 5843 5842 5841 5840 5839 5838 5837 5837 5837 5837 5837 5837 5837 5837
5860 5861 5862 5862 5863 5863 5863 5864 5864 5864 5865 5864 5864 5864 5864 5863 5862 5860 5859 5858 5857 5856 5855 5854 5853 5852 5851 5849 5848 5847 5846 5845 5843 5842 5841 5839 5838 5837 5836 5835 5834 5833 5832 5832 5831 5832 5831 5831 5832
5857 5859 5859 5860 5860 5861 5862 5862 5862 5862 5862 5862 5862 5862 5862 5861 5860 5858 5857 5856 5854 5853 5852 5851 5850 5849 5848 5847 5845 5844 5842 5841 5840 5838 5837 5835 5834 5833 5831 5830 5829 5828 5827 5826 5826 5826 5826 5826 5826
5855 5856 5857 5858 5858 5859 5859 5859 5859 5859 5860 5860 5859 5859 5859 5858 5857 5856 5854 5853 5852 5850 5848 5848 5847 5846 5845 5843 5842 5840 5839 5837 5836 5834 5832 5831 5830 5828 5827 5825 5824 5823 5822 5821 5821 5820 5820 5820 5821
5853 5854 5855 5855 5855 5856 5857 5857 5857 5856 5857 5857 5857 5856 5856 5856 5855 5853 5851 5850 5848 5847 5846 5844 5844 5842 5841 5839 5838 5837 5835 5833 5832 5830 5828 5826 5825 5823 5822 5821 5819 5818 5817 5816 5815 5815 5814 5814 5814
5850 5851 5852 5853 5853 5853 5855 5855 5854 5854 5854 5854 5854 5854 5853 5853 5852 5850 5848 5847 5845 5844 5843 5841 5840 5839 5837 5836 5835 5833 5832 5830 5828 5826 5824 5822 5820 5818 5817 5816 5815 5813 5811 5811 5810 5809 5809 5809 5808
5847 5848 5849 5851 5850 5850 5851 5851 5852 5851 5851 5851 5851 5851 5850 5850 5848 5847 5845 5843 5842 5841 5839 5838 5837 5835 5834 5832 5831 5829 5827 5825 5823 5821 5819 5818 5816 5814 5812 5811 5809 5808 5807 5805 5804 5804 5803 5803 5802
5845 5846 5847 5848 5848 5848 5847 5848 5848 5848 5848 5849 5849 5848 5848 5847 5845 5843 5842 5840 5839 5837 5836 5835 5833 5832 5830 5829 5827 5825 5823 5821 5819 5817 5815 5813 5811 5809 5808 5806 5804 5803 5801 5800 5799 5798 5797 5797 5796
5842 5843 5844 5845 5845 5845 5845 5845 5846 5846 5846 5846 5846 5845 5844 5843 5842 5840 5839 5837 5835 5834 5833 5831 5830 5828 5826 5825 5823 5821 5819 5817 5815 5813 5811 5809 5807 5805 5803 5801 5799 5798 5796 5794 5793 5792 5792 5791 5790
5839 5840 5841 5842 5842 5842 5842 5843 5843 5843 5842 5843 5842 5842 5841 5840 5839 5837 5836 5834 5833 5832 5830 5828 5826 5825 5822 5821 5820 5818 5815 5813 5811 5809 5807 5805 5803 5801 5798 5796 5794 5792 5791 5789 5787 5787 5786 5785 5784
5837 5838 5839 5839 5839 5839 5839 5840 5840 5840 5840 5839 5839 5838 5838 5837 5835 5834 5833 5832 5830 5829 5827 5825 5823 5821 5819 5817 5815 5813 5811 5809 5807 5805 5803 5801 5798 5796 5794 5791 5789 5787 5786 5784 5782 5781 5780 5779 5778
5834 5836 5836 5836 5836 5836 5837 5836 5838 5837 5836 5836 5836 5836 5835 5834 5832 5831 5830 5829 5827 5826 5824 5821 5819 5817 5815 5813 5811 5809 5807 5805 5803 5801 5799 5796 5794 5791 5789 5786 5784 5782 5780 5778 5777 5775 5774 5773 5772
5831 5832 5832 5832 5832 5833 5833 5833 5835 5834 5834 5833 5833 5833 5832 5831 5830 5829 5827 5826 5824 5822 5820 5818 5815 5813 5812 5810 5807 5805 5803 5801 5799 5797 5794 5792 5789 5786 5784 5781 5779 5777 5775 5773 5771 5770 5768 5767 5766
5827 5829 5829 5829 5829 5830 5831 5830 5832 5832 5831 5831 5831 5830 5829 5828 5827 5826 5824 5822 5820 5818 5816 5814 5812 5810 5808 5806 5804 5802 5800 5797 5794 5792 5790 5787 5784 5782 5779 5777 5775 5772 5770 5768 5766 5764 5763 5761 5760
5824 5826 5826 5826 5826 5827 5828 5828 5829 5829 5829 5828 5828 5827 5826 5825 5824 5823 5821 5819 5816 5814 5812 5810 5808 5806 5804 5802 5800 5798 5796 5793 5790 5788 5786 5783 5780 5777 5775 5772 5770 5767 5765 5763 5761 5759 5757 5756 5754
5821 5823 5824 5824 5824 5825 5825 5825 5827 5827 5826 5825 5825 5824 5823 5822 5821 5819 5817 5815 5813 5811 5809 5807 5804 5803 5800 5798 5797 5794 5792 5789 5787 5784 5781 5779 5776 5773 5771 5768 5765 5763 5760 5758 5756 5754 5752 5750 5749
5818 5819 5820 5821 5821 5821 5822 5823 5824 5824 5823 5822 5822 5821 5820 5819 5817 5816 5814 5812 5809 5807 5805 5803 5801 5799 5797 5795 5792 5790 5787 5785 5783 5780 5777 5775 5772 5769 5766 5763 5761 5758 5756 5753 5751 5749 5747 5745 5744
5815 5816 5817 5817 5817 5817 5818 5819 5821 5820 5820 5819 5819 5818 5817 5815 5814 5812 5810 5808 5806 5804 5802 5799 5797 5795 5793 5791 5789 5786 5784 5782 5779 5776 5774 5771 5768 5765 5762 5759 5757 5754 5752 5749 5747 5744 5742 5741 5739
5811 5812 5812 5813 5813 5814 5814 5818 5817 5817 5816 5816 5815 5814 5813 5812 5810 5809 5807 5804 5802 5800 5798 5795 5793 5791 5789 5787 5785 5783 5780 5778 5776 5773 5771 5768 5765 5762 5759 5756 5754 5751 5748 5745 5743 5741 5738 5736 5735
5806 5807 5808 5809 5810 5810 5810 5815 5813 5812 5812 5811 5811 5810 5809 5808 5806 5805 5803 5801 5798 5796 5794 5792 5790 5787 5785 5783 5781 5779 5777 5775 5773 5770 5768 5765 5762 5759 5757 5754 5751 5748 5745 5742 5740 5737 5735 5733 5731